Time,TemperatureF,DewpointF,PressureIn,WindDirection,WindDirectionDegrees,WindSpeedMPH,WindSpeedGustMPH,Humidity,HourlyPrecipIn,Conditions,Clouds,dailyrainin,SoftwareType,DateUTC
2013-03-28 00:00:00,33.4,26.6,30.26,WNW,288,2.0,2.0,76,0.00,,,0.00,Wunderground v.1.15,2013-03-28 05:00:00,
2013-03-28 00:05:00,33.5,26.7,30.26,WNW,288,1.0,2.0,76,0.00,,,0.00,Wunderground v.1.15,2013-03-28 05:05:00,
2013-03-28 00:10:00,33.5,26.7,30.26,WNW,288,2.0,2.0,76,0.00,,,0.00,Wunderground v.1.15,2013-03-28 05:10:00,
2013-03-28 00:15:00,33.5,26.7,30.26,WNW,288,2.0,2.0,76,0.00,,,0.00,Wunderground v.1.15,2013-03-28 05:15:00,
2013-03-28 00:20:00,33.7,27.3,30.26,WNW,288,2.0,2.0,77,0.00,,,0.00,Wunderground v.1.15,2013-03-28 05:20:00,
2013-03-28 00:25:00,33.8,27.4,30.26,WNW,290,2.0,3.0,77,0.00,,,0.00,Wunderground v.1.15,2013-03-28 05:25:00,
2013-03-28 00:30:00,33.8,27.4,30.26,WNW,290,2.0,2.0,77,0.00,,,0.00,Wunderground v.1.15,2013-03-28 05:30:00,
2013-03-28 00:40:00,34.0,27.5,30.26,WNW,291,3.0,3.0,77,0.00,,,0.00,Wunderground v.1.15,2013-03-28 05:40:00,
2013-03-28 00:45:00,34.0,27.5,30.26,WNW,295,2.0,5.0,77,0.00,,,0.00,Wunderground v.1.15,2013-03-28 05:45:00,
2013-03-28 00:50:00,34.1,27.6,30.26,WNW,295,3.0,3.0,77,0.00,,,0.00,Wunderground v.1.15,2013-03-28 05:50:00,
2013-03-28 00:55:00,34.3,27.5,30.26,WNW,295,3.0,3.0,76,0.00,,,0.00,Wunderground v.1.15,2013-03-28 05:55:00,
2013-03-28 01:00:00,34.3,27.5,30.26,WNW,296,3.0,3.0,76,0.00,,,0.00,Wunderground v.1.15,2013-03-28 06:00:00,
2013-03-28 01:05:00,34.6,27.8,30.26,WNW,294,3.0,6.0,76,0.00,,,0.00,Wunderground v.1.15,2013-03-28 06:05:00,
2013-03-28 01:10:00,34.4,27.6,30.26,WNW,292,3.0,3.0,76,0.00,,,0.00,Wunderground v.1.15,2013-03-28 06:10:00,
2013-03-28 01:15:00,34.4,27.6,30.26,WNW,296,3.0,3.0,76,0.00,,,0.00,Wunderground v.1.15,2013-03-28 06:15:00,
2013-03-28 01:20:00,34.6,28.1,30.26,WNW,303,3.0,3.0,77,0.00,,,0.00,Wunderground v.1.15,2013-03-28 06:20:00,
2013-03-28 01:25:00,34.6,27.8,30.26,NW,304,3.0,4.0,76,0.00,,,0.00,Wunderground v.1.15,2013-03-28 06:25:00,
2013-03-28 01:30:00,34.6,27.8,30.26,WNW,297,3.0,3.0,76,0.00,,,0.00,Wunderground v.1.15,2013-03-28 06:30:00,
2013-03-28 01:35:00,34.6,27.8,30.26,WNW,297,3.0,4.0,76,0.00,,,0.00,Wunderground v.1.15,2013-03-28 06:35:00,
2013-03-28 01:40:00,34.6,27.8,30.26,WNW,298,3.0,4.0,76,0.00,,,0.00,Wunderground v.1.15,2013-03-28 06:40:00,
2013-03-28 01:45:00,34.6,27.8,30.26,WNW,300,3.0,4.0,76,0.00,,,0.00,Wunderground v.1.15,2013-03-28 06:45:00,
2013-03-28 01:50:00,34.6,27.8,30.26,WNW,298,3.0,3.0,76,0.00,,,0.00,Wunderground v.1.15,2013-03-28 06:50:00,
2013-03-28 01:55:00,34.6,27.5,30.26,WNW,300,3.0,4.0,75,0.00,,,0.00,Wunderground v.1.15,2013-03-28 06:55:00,
2013-03-28 02:00:00,34.7,27.3,30.26,WNW,301,3.0,3.0,74,0.00,,,0.00,Wunderground v.1.15,2013-03-28 07:00:00,
2013-03-28 02:05:00,34.7,27.6,30.26,WNW,300,3.0,3.0,75,0.00,,,0.00,Wunderground v.1.15,2013-03-28 07:05:00,
2013-03-28 02:10:00,34.6,27.8,30.26,WNW,300,2.0,4.0,76,0.00,,,0.00,Wunderground v.1.15,2013-03-28 07:10:00,
2013-03-28 02:15:00,34.6,27.8,30.26,WNW,299,3.0,4.0,76,0.00,,,0.00,Wunderground v.1.15,2013-03-28 07:15:00,
2013-03-28 02:20:00,34.6,27.8,30.26,WNW,299,3.0,3.0,76,0.00,,,0.00,Wunderground v.1.15,2013-03-28 07:20:00,
2013-03-28 02:25:00,34.4,27.6,30.26,WNW,300,3.0,4.0,76,0.00,,,0.00,Wunderground v.1.15,2013-03-28 07:25:00,
2013-03-28 02:30:00,34.4,27.6,30.26,WNW,298,3.0,3.0,76,0.00,,,0.00,Wunderground v.1.15,2013-03-28 07:30:00,
2013-03-28 02:35:00,34.3,27.5,30.26,WNW,298,2.0,4.0,76,0.00,,,0.00,Wunderground v.1.15,2013-03-28 07:35:00,
2013-03-28 02:40:00,34.4,27.6,30.26,WNW,298,2.0,2.0,76,0.00,,,0.00,Wunderground v.1.15,2013-03-28 07:40:00,
2013-03-28 02:45:00,34.3,27.5,30.26,WNW,298,3.0,3.0,76,0.00,,,0.00,Wunderground v.1.15,2013-03-28 07:45:00,
2013-03-28 02:50:00,34.3,27.5,30.26,WNW,298,2.0,2.0,76,0.00,,,0.00,Wunderground v.1.15,2013-03-28 07:50:00,
2013-03-28 02:55:00,34.3,27.8,30.26,WNW,298,2.0,3.0,77,0.00,,,0.00,Wunderground v.1.15,2013-03-28 07:55:00,
2013-03-28 03:00:00,34.3,27.5,30.26,WNW,299,3.0,3.0,76,0.00,,,0.00,Wunderground v.1.15,2013-03-28 08:00:00,
2013-03-28 03:05:00,34.3,27.5,30.26,WNW,301,3.0,3.0,76,0.00,,,0.00,Wunderground v.1.15,2013-03-28 08:05:00,
2013-03-28 03:10:00,34.3,27.5,30.26,WNW,301,3.0,3.0,76,0.00,,,0.00,Wunderground v.1.15,2013-03-28 08:10:00,
2013-03-28 03:15:00,34.1,27.6,30.26,WNW,302,2.0,3.0,77,0.00,,,0.00,Wunderground v.1.15,2013-03-28 08:15:00,
2013-03-28 03:20:00,34.1,27.6,30.26,WNW,302,2.0,2.0,77,0.00,,,0.00,Wunderground v.1.15,2013-03-28 08:20:00,
2013-03-28 03:25:00,34.3,27.8,30.26,WNW,300,2.0,2.0,77,0.00,,,0.00,Wunderground v.1.15,2013-03-28 08:25:00,
2013-03-28 03:30:00,34.1,27.6,30.26,WNW,300,2.0,2.0,77,0.00,,,0.00,Wunderground v.1.15,2013-03-28 08:30:00,
2013-03-28 03:35:00,34.3,27.8,30.26,WNW,298,2.0,2.0,77,0.00,,,0.00,Wunderground v.1.15,2013-03-28 08:35:00,
2013-03-28 03:40:00,34.3,27.8,30.26,WNW,298,2.0,2.0,77,0.00,,,0.00,Wunderground v.1.15,2013-03-28 08:40:00,
2013-03-28 03:45:00,34.3,27.8,30.26,WNW,298,2.0,4.0,77,0.00,,,0.00,Wunderground v.1.15,2013-03-28 08:45:00,
2013-03-28 03:50:00,34.3,27.8,30.26,WNW,300,2.0,3.0,77,0.00,,,0.00,Wunderground v.1.15,2013-03-28 08:50:00,
2013-03-28 03:55:00,34.4,27.9,30.26,WNW,302,3.0,3.0,77,0.00,,,0.00,Wunderground v.1.15,2013-03-28 08:55:00,
2013-03-28 04:00:00,34.4,27.9,30.26,NW,306,3.0,5.0,77,0.00,,,0.00,Wunderground v.1.15,2013-03-28 09:00:00,
2013-03-28 04:10:00,34.4,27.6,30.26,NW,308,4.0,4.0,76,0.00,,,0.00,Wunderground v.1.15,2013-03-28 09:10:00,
2013-03-28 04:15:00,34.4,27.9,30.26,NW,309,3.0,4.0,77,0.00,,,0.00,Wunderground v.1.15,2013-03-28 09:15:00,
2013-03-28 04:20:00,34.4,27.9,30.26,NW,309,3.0,3.0,77,0.00,,,0.00,Wunderground v.1.15,2013-03-28 09:20:00,
2013-03-28 04:25:00,34.4,27.6,30.26,NW,309,3.0,4.0,76,0.00,,,0.00,Wunderground v.1.15,2013-03-28 09:25:00,
2013-03-28 04:30:00,34.4,27.6,30.25,NW,309,3.0,3.0,76,0.00,,,0.00,Wunderground v.1.15,2013-03-28 09:30:00,
2013-03-28 04:35:00,34.4,27.9,30.25,NW,310,3.0,3.0,77,0.00,,,0.00,Wunderground v.1.15,2013-03-28 09:35:00,
2013-03-28 04:40:00,34.4,27.9,30.25,NW,310,3.0,3.0,77,0.00,,,0.00,Wunderground v.1.15,2013-03-28 09:40:00,
2013-03-28 04:45:00,34.4,27.9,30.25,WNW,294,3.0,4.0,77,0.00,,,0.00,Wunderground v.1.15,2013-03-28 09:45:00,
2013-03-28 04:50:00,34.4,27.9,30.25,WNW,294,3.0,3.0,77,0.00,,,0.00,Wunderground v.1.15,2013-03-28 09:50:00,
2013-03-28 04:55:00,34.3,27.8,30.25,WNW,294,3.0,4.0,77,0.00,,,0.00,Wunderground v.1.15,2013-03-28 09:55:00,
2013-03-28 05:00:00,34.3,27.8,30.26,WNW,296,3.0,3.0,77,0.00,,,0.00,Wunderground v.1.15,2013-03-28 10:00:00,
2013-03-28 05:05:00,34.3,28.2,30.26,WNW,296,3.0,3.0,78,0.00,,,0.00,Wunderground v.1.15,2013-03-28 10:05:00,
2013-03-28 05:10:00,34.1,28.0,30.26,WNW,296,3.0,3.0,78,0.00,,,0.00,Wunderground v.1.15,2013-03-28 10:10:00,
2013-03-28 05:15:00,34.1,28.0,30.26,WNW,296,2.0,3.0,78,0.00,,,0.00,Wunderground v.1.15,2013-03-28 10:15:00,
2013-03-28 05:25:00,34.0,28.2,30.26,WNW,297,2.0,2.0,79,0.00,,,0.00,Wunderground v.1.15,2013-03-28 10:25:00,
2013-03-28 05:30:00,34.0,28.2,30.26,WNW,298,3.0,4.0,79,0.00,,,0.00,Wunderground v.1.15,2013-03-28 10:30:00,
2013-03-28 05:35:00,34.0,28.2,30.26,WNW,298,3.0,4.0,79,0.00,,,0.00,Wunderground v.1.15,2013-03-28 10:35:00,
2013-03-28 05:40:00,34.0,28.2,30.26,WNW,299,3.0,5.0,79,0.00,,,0.00,Wunderground v.1.15,2013-03-28 10:40:00,
2013-03-28 05:45:00,34.0,28.2,30.26,WNW,292,3.0,5.0,79,0.00,,,0.00,Wunderground v.1.15,2013-03-28 10:45:00,
2013-03-28 05:50:00,34.1,28.3,30.26,WNW,294,3.0,6.0,79,0.00,,,0.00,Wunderground v.1.15,2013-03-28 10:50:00,
2013-03-28 05:55:00,34.1,28.3,30.26,WNW,294,3.0,6.0,79,0.00,,,0.00,Wunderground v.1.15,2013-03-28 10:55:00,
2013-03-28 06:00:00,34.1,28.3,30.26,WNW,296,3.0,3.0,79,0.00,,,0.00,Wunderground v.1.15,2013-03-28 11:00:00,
2013-03-28 06:05:00,34.3,28.5,30.26,NW,309,4.0,4.0,79,0.00,,,0.00,Wunderground v.1.15,2013-03-28 11:05:00,
2013-03-28 06:10:00,34.3,28.5,30.26,NW,312,4.0,4.0,79,0.00,,,0.00,Wunderground v.1.15,2013-03-28 11:10:00,
2013-03-28 06:15:00,34.3,28.5,30.27,NW,304,4.0,4.0,79,0.00,,,0.00,Wunderground v.1.15,2013-03-28 11:15:00,
2013-03-28 06:20:00,34.3,28.5,30.27,NW,304,3.0,3.0,79,0.00,,,0.00,Wunderground v.1.15,2013-03-28 11:20:00,
2013-03-28 06:25:00,34.4,28.6,30.27,NW,313,4.0,5.0,79,0.00,,,0.00,Wunderground v.1.15,2013-03-28 11:25:00,
2013-03-28 06:35:00,34.4,28.6,30.27,NW,314,3.0,4.0,79,0.00,,,0.00,Wunderground v.1.15,2013-03-28 11:35:00,
2013-03-28 06:40:00,34.3,28.5,30.27,NW,307,3.0,3.0,79,0.00,,,0.00,Wunderground v.1.15,2013-03-28 11:40:00,
2013-03-28 06:45:00,34.3,28.5,30.27,NW,311,3.0,5.0,79,0.00,,,0.00,Wunderground v.1.15,2013-03-28 11:45:00,
2013-03-28 06:50:00,34.3,28.5,30.27,NW,311,3.0,3.0,79,0.00,,,0.00,Wunderground v.1.15,2013-03-28 11:50:00,
2013-03-28 06:55:00,34.3,28.5,30.27,NW,315,3.0,3.0,79,0.00,,,0.00,Wunderground v.1.15,2013-03-28 11:55:00,
2013-03-28 07:05:00,34.6,29.1,30.27,NW,317,3.0,6.0,80,0.00,,,0.00,Wunderground v.1.15,2013-03-28 12:05:00,
2013-03-28 07:10:00,34.7,29.2,30.27,NW,316,3.0,4.0,80,0.00,,,0.00,Wunderground v.1.15,2013-03-28 12:10:00,
2013-03-28 07:15:00,34.9,29.4,30.28,NW,314,3.0,4.0,80,0.00,,,0.00,Wunderground v.1.15,2013-03-28 12:15:00,
2013-03-28 07:20:00,35.0,29.5,30.28,NW,314,2.0,2.0,80,0.00,,,0.00,Wunderground v.1.15,2013-03-28 12:20:00,
2013-03-28 07:25:00,35.2,29.6,30.28,NW,315,2.0,2.0,80,0.00,,,0.00,Wunderground v.1.15,2013-03-28 12:25:00,
2013-03-28 07:30:00,35.3,30.4,30.28,NW,309,2.0,3.0,82,0.00,,,0.00,Wunderground v.1.15,2013-03-28 12:30:00,
2013-03-28 07:35:00,35.5,29.9,30.28,NW,308,3.0,3.0,80,0.00,,,0.00,Wunderground v.1.15,2013-03-28 12:35:00,
2013-03-28 07:40:00,35.6,30.0,30.28,NW,309,2.0,4.0,80,0.00,,,0.00,Wunderground v.1.15,2013-03-28 12:40:00,
2013-03-28 07:45:00,35.8,29.9,30.28,NW,308,2.0,4.0,79,0.00,,,0.00,Wunderground v.1.15,2013-03-28 12:45:00,
2013-03-28 07:50:00,36.0,30.1,30.28,WNW,302,3.0,3.0,79,0.00,,,0.00,Wunderground v.1.15,2013-03-28 12:50:00,
2013-03-28 07:55:00,36.2,30.3,30.28,WNW,283,3.0,3.0,79,0.00,,,0.00,Wunderground v.1.15,2013-03-28 12:55:00,
2013-03-28 08:00:00,36.3,30.1,30.28,NW,304,3.0,3.0,78,0.00,,,0.00,Wunderground v.1.15,2013-03-28 13:00:00,
2013-03-28 08:05:00,36.6,30.4,30.28,NW,325,3.0,3.0,78,0.00,,,0.00,Wunderground v.1.15,2013-03-28 13:05:00,
2013-03-28 08:10:00,36.8,30.6,30.28,NW,311,2.0,2.0,78,0.00,,,0.00,Wunderground v.1.15,2013-03-28 13:10:00,
2013-03-28 08:15:00,36.9,30.4,30.28,WNW,296,3.0,3.0,77,0.00,,,0.00,Wunderground v.1.15,2013-03-28 13:15:00,
2013-03-28 08:20:00,37.0,30.5,30.28,WNW,300,3.0,3.0,77,0.00,,,0.00,Wunderground v.1.15,2013-03-28 13:20:00,
2013-03-28 08:25:00,37.2,30.7,30.28,WNW,301,3.0,3.0,77,0.00,,,0.00,Wunderground v.1.15,2013-03-28 13:25:00,
2013-03-28 08:30:00,37.2,30.3,30.29,WNW,302,3.0,3.0,76,0.00,,,0.00,Wunderground v.1.15,2013-03-28 13:30:00,
2013-03-28 08:35:00,37.2,30.3,30.29,NW,324,4.0,4.0,76,0.00,,,0.00,Wunderground v.1.15,2013-03-28 13:35:00,
2013-03-28 08:40:00,37.3,30.4,30.29,NNW,336,4.0,4.0,76,0.00,,,0.00,Wunderground v.1.15,2013-03-28 13:40:00,
2013-03-28 08:45:00,37.3,30.4,30.29,WNW,298,4.0,4.0,76,0.00,,,0.00,Wunderground v.1.15,2013-03-28 13:45:00,
2013-03-28 08:50:00,37.3,30.1,30.29,NNW,330,5.0,7.0,75,0.00,,,0.00,Wunderground v.1.15,2013-03-28 13:50:00,
2013-03-28 08:55:00,37.2,30.0,30.29,NW,325,6.0,7.0,75,0.00,,,0.00,Wunderground v.1.15,2013-03-28 13:55:00,
2013-03-28 09:00:00,37.2,30.0,30.29,NNW,332,6.0,6.0,75,0.00,,,0.00,Wunderground v.1.15,2013-03-28 14:00:00,
2013-03-28 09:05:00,37.3,29.4,30.29,NNW,334,5.0,6.0,73,0.00,,,0.00,Wunderground v.1.15,2013-03-28 14:05:00,
2013-03-28 09:10:00,37.2,29.3,30.29,North,5,7.0,10.0,73,0.00,,,0.00,Wunderground v.1.15,2013-03-28 14:10:00,
2013-03-28 09:15:00,37.2,29.3,30.29,NNW,332,9.0,10.0,73,0.00,,,0.00,Wunderground v.1.15,2013-03-28 14:15:00,
2013-03-28 09:20:00,37.6,29.7,30.29,NNW,329,7.0,7.0,73,0.00,,,0.00,Wunderground v.1.15,2013-03-28 14:20:00,
2013-03-28 09:25:00,37.9,30.0,30.29,NW,324,6.0,7.0,73,0.00,,,0.00,Wunderground v.1.15,2013-03-28 14:25:00,
2013-03-28 09:30:00,38.0,29.4,30.29,NNW,338,6.0,9.0,71,0.00,,,0.00,Wunderground v.1.15,2013-03-28 14:30:00,
2013-03-28 09:35:00,38.0,29.1,30.29,NNW,342,6.0,9.0,70,0.00,,,0.00,Wunderground v.1.15,2013-03-28 14:35:00,
2013-03-28 09:40:00,38.2,29.3,30.29,North,355,6.0,6.0,70,0.00,,,0.00,Wunderground v.1.15,2013-03-28 14:40:00,
2013-03-28 09:45:00,38.5,29.2,30.29,North,5,6.0,12.0,69,0.00,,,0.00,Wunderground v.1.15,2013-03-28 14:45:00,
2013-03-28 09:50:00,38.3,28.3,30.29,NW,322,7.0,7.0,67,0.00,,,0.00,Wunderground v.1.15,2013-03-28 14:50:00,
2013-03-28 09:55:00,37.9,28.3,30.29,NNW,344,8.0,8.0,68,0.00,,,0.00,Wunderground v.1.15,2013-03-28 14:55:00,
2013-03-28 10:05:00,38.3,28.7,30.29,North,5,8.0,10.0,68,0.00,,,0.00,Wunderground v.1.15,2013-03-28 15:05:00,
2013-03-28 10:10:00,38.5,29.2,30.29,NW,322,9.0,9.0,69,0.00,,,0.00,Wunderground v.1.15,2013-03-28 15:10:00,
2013-03-28 10:15:00,38.5,29.2,30.30,North,5,8.0,10.0,69,0.00,,,0.00,Wunderground v.1.15,2013-03-28 15:15:00,
2013-03-28 10:20:00,38.3,29.0,30.30,North,355,7.0,8.0,69,0.00,,,0.00,Wunderground v.1.15,2013-03-28 15:20:00,
2013-03-28 10:25:00,38.3,29.0,30.30,NNW,333,8.0,8.0,69,0.00,,,0.00,Wunderground v.1.15,2013-03-28 15:25:00,
2013-03-28 10:35:00,38.2,27.1,30.30,North,5,7.0,7.0,64,0.00,,,0.00,Wunderground v.1.15,2013-03-28 15:35:00,
2013-03-28 10:40:00,38.6,27.5,30.30,NNE,15,7.0,10.0,64,0.00,,,0.00,Wunderground v.1.15,2013-03-28 15:40:00,
2013-03-28 10:45:00,38.6,27.5,30.30,North,360,7.0,10.0,64,0.00,,,0.00,Wunderground v.1.15,2013-03-28 15:45:00,
2013-03-28 10:50:00,39.3,28.5,30.30,NW,322,7.0,7.0,65,0.00,,,0.00,Wunderground v.1.15,2013-03-28 15:50:00,
2013-03-28 10:55:00,39.2,29.2,30.30,WNW,298,6.0,7.0,67,0.00,,,0.00,Wunderground v.1.15,2013-03-28 15:55:00,
2013-03-28 11:00:00,38.9,28.9,30.30,NNW,339,7.0,7.0,67,0.00,,,0.00,Wunderground v.1.15,2013-03-28 16:00:00,
2013-03-28 11:05:00,38.8,28.8,30.30,NNW,330,6.0,7.0,67,0.00,,,0.00,Wunderground v.1.15,2013-03-28 16:05:00,
2013-03-28 11:10:00,38.9,28.5,30.30,WNW,287,5.0,7.0,66,0.00,,,0.00,Wunderground v.1.15,2013-03-28 16:10:00,
2013-03-28 11:15:00,39.1,28.7,30.30,NNW,329,5.0,7.0,66,0.00,,,0.00,Wunderground v.1.15,2013-03-28 16:15:00,
2013-03-28 11:20:00,38.9,28.5,30.30,NW,317,5.0,5.0,66,0.00,,,0.00,Wunderground v.1.15,2013-03-28 16:20:00,
2013-03-28 11:25:00,38.0,27.6,30.30,NNW,336,7.0,10.0,66,0.00,,,0.00,Wunderground v.1.15,2013-03-28 16:25:00,
2013-03-28 11:30:00,38.2,28.6,30.30,North,355,7.0,7.0,68,0.00,,,0.00,Wunderground v.1.15,2013-03-28 16:30:00,
2013-03-28 11:35:00,38.9,29.2,30.30,WNW,294,7.0,7.0,68,0.00,,,0.00,Wunderground v.1.15,2013-03-28 16:35:00,
2013-03-28 11:40:00,38.8,29.1,30.30,WNW,303,6.0,6.0,68,0.00,,,0.00,Wunderground v.1.15,2013-03-28 16:40:00,
2013-03-28 11:45:00,38.9,28.9,30.30,WNW,295,6.0,6.0,67,0.00,,,0.00,Wunderground v.1.15,2013-03-28 16:45:00,
2013-03-28 11:50:00,39.1,29.1,30.30,West,271,6.0,6.0,67,0.00,,,0.00,Wunderground v.1.15,2013-03-28 16:50:00,
2013-03-28 11:55:00,38.9,28.9,30.30,NNW,334,6.0,9.0,67,0.00,,,0.00,Wunderground v.1.15,2013-03-28 16:55:00,
2013-03-28 12:00:00,38.8,29.1,30.30,NNW,329,7.0,8.0,68,0.00,,,0.00,Wunderground v.1.15,2013-03-28 17:00:00,
2013-03-28 12:05:00,39.3,29.3,30.30,NNW,328,6.0,9.0,67,0.00,,,0.00,Wunderground v.1.15,2013-03-28 17:05:00,
2013-03-28 12:10:00,40.2,30.5,30.30,NW,313,5.0,5.0,68,0.00,,,0.00,Wunderground v.1.15,2013-03-28 17:10:00,
2013-03-28 12:15:00,40.2,30.1,30.30,NNW,336,5.0,6.0,67,0.00,,,0.00,Wunderground v.1.15,2013-03-28 17:15:00,
2013-03-28 12:25:00,40.1,29.3,30.30,NNW,331,6.0,6.0,65,0.00,,,0.00,Wunderground v.1.15,2013-03-28 17:25:00,
2013-03-28 12:30:00,39.9,29.8,30.30,WNW,292,6.0,10.0,67,0.00,,,0.00,Wunderground v.1.15,2013-03-28 17:30:00,
2013-03-28 12:35:00,39.9,30.2,30.30,NNW,336,6.0,10.0,68,0.00,,,0.00,Wunderground v.1.15,2013-03-28 17:35:00,
2013-03-28 12:40:00,39.6,29.9,30.30,WNW,289,6.0,6.0,68,0.00,,,0.00,Wunderground v.1.15,2013-03-28 17:40:00,
2013-03-28 12:45:00,39.3,29.6,30.30,NW,318,6.0,8.0,68,0.00,,,0.00,Wunderground v.1.15,2013-03-28 17:45:00,
2013-03-28 12:50:00,39.2,30.2,30.30,WNW,291,6.0,6.0,70,0.00,,,0.00,Wunderground v.1.15,2013-03-28 17:50:00,
2013-03-28 12:55:00,38.8,29.8,30.30,WNW,285,7.0,9.0,70,0.00,,,0.00,Wunderground v.1.15,2013-03-28 17:55:00,
2013-03-28 13:00:00,39.1,30.1,30.30,West,280,7.0,7.0,70,0.00,,,0.00,Wunderground v.1.15,2013-03-28 18:00:00,
2013-03-28 13:05:00,39.8,30.1,30.30,West,261,6.0,11.0,68,0.00,,,0.00,Wunderground v.1.15,2013-03-28 18:05:00,
2013-03-28 13:10:00,39.9,30.2,30.30,West,275,5.0,7.0,68,0.00,,,0.00,Wunderground v.1.15,2013-03-28 18:10:00,
2013-03-28 13:15:00,40.1,30.4,30.30,West,280,5.0,7.0,68,0.00,,,0.00,Wunderground v.1.15,2013-03-28 18:15:00,
2013-03-28 13:20:00,40.2,30.5,30.30,NW,314,5.0,5.0,68,0.00,,,0.00,Wunderground v.1.15,2013-03-28 18:20:00,
2013-03-28 13:25:00,39.8,29.7,30.30,WNW,292,5.0,11.0,67,0.00,,,0.00,Wunderground v.1.15,2013-03-28 18:25:00,
2013-03-28 13:30:00,39.3,29.6,30.30,West,276,6.0,7.0,68,0.00,,,0.00,Wunderground v.1.15,2013-03-28 18:30:00,
2013-03-28 13:35:00,39.2,29.5,30.30,NW,315,7.0,8.0,68,0.00,,,0.00,Wunderground v.1.15,2013-03-28 18:35:00,
2013-03-28 13:40:00,38.8,29.8,30.30,NW,306,7.0,7.0,70,0.00,,,0.00,Wunderground v.1.15,2013-03-28 18:40:00,
2013-03-28 13:45:00,39.2,29.9,30.30,West,273,6.0,9.0,69,0.00,,,0.00,Wunderground v.1.15,2013-03-28 18:45:00,
2013-03-28 13:50:00,39.1,29.4,30.30,NNW,336,7.0,9.0,68,0.00,,,0.00,Wunderground v.1.15,2013-03-28 18:50:00,
2013-03-28 13:55:00,39.5,29.8,30.30,WNW,292,7.0,9.0,68,0.00,,,0.00,Wunderground v.1.15,2013-03-28 18:55:00,
2013-03-28 14:00:00,39.5,29.8,30.29,West,274,6.0,8.0,68,0.00,,,0.00,Wunderground v.1.15,2013-03-28 19:00:00,
2013-03-28 14:05:00,39.8,29.7,30.29,West,273,6.0,8.0,67,0.00,,,0.00,Wunderground v.1.15,2013-03-28 19:05:00,
2013-03-28 14:10:00,40.2,30.5,30.29,WNW,299,5.0,7.0,68,0.00,,,0.00,Wunderground v.1.15,2013-03-28 19:10:00,
2013-03-28 14:15:00,40.3,29.8,30.29,WNW,298,5.0,7.0,66,0.00,,,0.00,Wunderground v.1.15,2013-03-28 19:15:00,
2013-03-28 14:20:00,40.2,29.4,30.29,WNW,294,5.0,5.0,65,0.00,,,0.00,Wunderground v.1.15,2013-03-28 19:20:00,
2013-03-28 14:25:00,39.6,28.8,30.29,WNW,294,5.0,6.0,65,0.00,,,0.00,Wunderground v.1.15,2013-03-28 19:25:00,
2013-03-28 14:30:00,39.9,29.8,30.29,NW,325,5.0,5.0,67,0.00,,,0.00,Wunderground v.1.15,2013-03-28 19:30:00,
2013-03-28 14:35:00,40.1,28.5,30.29,WNW,287,5.0,5.0,63,0.00,,,0.00,Wunderground v.1.15,2013-03-28 19:35:00,
2013-03-28 14:45:00,39.3,28.9,30.28,NNW,332,6.0,8.0,66,0.00,,,0.00,Wunderground v.1.15,2013-03-28 19:45:00,
2013-03-28 14:50:00,39.2,29.2,30.28,NNW,345,7.0,10.0,67,0.00,,,0.00,Wunderground v.1.15,2013-03-28 19:50:00,
2013-03-28 14:55:00,39.5,29.1,30.28,NW,311,6.0,10.0,66,0.00,,,0.00,Wunderground v.1.15,2013-03-28 19:55:00,
2013-03-28 15:00:00,40.2,28.2,30.28,NW,319,5.0,6.0,62,0.00,,,0.00,Wunderground v.1.15,2013-03-28 20:00:00,
2013-03-28 15:05:00,39.8,27.4,30.28,NNW,333,5.0,6.0,61,0.00,,,0.00,Wunderground v.1.15,2013-03-28 20:05:00,
2013-03-28 15:10:00,39.5,23.8,30.28,NW,324,6.0,6.0,53,0.00,,,0.00,Wunderground v.1.15,2013-03-28 20:10:00,
2013-03-28 15:15:00,39.8,24.5,30.27,NW,307,6.0,6.0,54,0.00,,,0.00,Wunderground v.1.15,2013-03-28 20:15:00,
2013-03-28 15:20:00,39.8,23.6,30.27,NNW,327,6.0,7.0,52,0.00,,,0.00,Wunderground v.1.15,2013-03-28 20:20:00,
2013-03-28 15:25:00,40.3,25.4,30.27,NW,325,6.0,7.0,55,0.00,,,0.00,Wunderground v.1.15,2013-03-28 20:25:00,
2013-03-28 15:30:00,40.6,24.3,30.27,NW,315,5.0,6.0,52,0.00,,,0.00,Wunderground v.1.15,2013-03-28 20:30:00,
2013-03-28 15:35:00,40.6,23.9,30.27,WNW,300,5.0,6.0,51,0.00,,,0.00,Wunderground v.1.15,2013-03-28 20:35:00,
2013-03-28 15:40:00,40.9,24.1,30.27,WNW,299,5.0,5.0,51,0.00,,,0.00,Wunderground v.1.15,2013-03-28 20:40:00,
2013-03-28 15:45:00,40.9,24.1,30.27,NW,311,5.0,6.0,51,0.00,,,0.00,Wunderground v.1.15,2013-03-28 20:45:00,
2013-03-28 15:50:00,40.6,23.9,30.27,NW,315,5.0,5.0,51,0.00,,,0.00,Wunderground v.1.15,2013-03-28 20:50:00,
2013-03-28 15:55:00,40.6,23.4,30.27,NNW,327,5.0,7.0,50,0.00,,,0.00,Wunderground v.1.15,2013-03-28 20:55:00,
2013-03-28 16:00:00,40.1,22.0,30.27,NNW,335,6.0,7.0,48,0.00,,,0.00,Wunderground v.1.15,2013-03-28 21:00:00,
2013-03-28 16:05:00,39.8,23.1,30.27,WNW,297,7.0,7.0,51,0.00,,,0.00,Wunderground v.1.15,2013-03-28 21:05:00,
2013-03-28 16:10:00,40.1,24.3,30.27,NNW,330,6.0,6.0,53,0.00,,,0.00,Wunderground v.1.15,2013-03-28 21:10:00,
2013-03-28 16:15:00,40.2,24.9,30.27,NW,312,5.0,6.0,54,0.00,,,0.00,Wunderground v.1.15,2013-03-28 21:15:00,
2013-03-28 16:20:00,40.2,22.5,30.27,North,5,5.0,7.0,49,0.00,,,0.00,Wunderground v.1.15,2013-03-28 21:20:00,
2013-03-28 16:25:00,39.6,22.5,30.27,NNW,340,6.0,7.0,50,0.00,,,0.00,Wunderground v.1.15,2013-03-28 21:25:00,
2013-03-28 16:30:00,40.2,24.0,30.27,NNW,334,6.0,6.0,52,0.00,,,0.00,Wunderground v.1.15,2013-03-28 21:30:00,
2013-03-28 16:35:00,40.5,23.8,30.27,North,5,5.0,6.0,51,0.00,,,0.00,Wunderground v.1.15,2013-03-28 21:35:00,
2013-03-28 16:40:00,40.1,23.4,30.27,North,349,5.0,7.0,51,0.00,,,0.00,Wunderground v.1.15,2013-03-28 21:40:00,
2013-03-28 16:45:00,39.9,23.2,30.26,North,5,6.0,7.0,51,0.00,,,0.00,Wunderground v.1.15,2013-03-28 21:45:00,
2013-03-28 16:50:00,39.8,23.1,30.26,North,355,5.0,5.0,51,0.00,,,0.00,Wunderground v.1.15,2013-03-28 21:50:00,
2013-03-28 16:55:00,40.1,23.4,30.26,NNW,346,5.0,6.0,51,0.00,,,0.00,Wunderground v.1.15,2013-03-28 21:55:00,
2013-03-28 17:00:00,40.1,23.9,30.26,NNW,348,5.0,5.0,52,0.00,,,0.00,Wunderground v.1.15,2013-03-28 22:00:00,
2013-03-28 17:05:00,40.2,24.4,30.26,North,350,5.0,5.0,53,0.00,,,0.00,Wunderground v.1.15,2013-03-28 22:05:00,
2013-03-28 17:10:00,40.6,24.3,30.26,North,360,4.0,5.0,52,0.00,,,0.00,Wunderground v.1.15,2013-03-28 22:10:00,
2013-03-28 17:15:00,40.6,24.3,30.26,North,360,4.0,5.0,52,0.00,,,0.00,Wunderground v.1.15,2013-03-28 22:15:00,
2013-03-28 17:20:00,41.1,24.3,30.26,North,5,4.0,4.0,51,0.00,,,0.00,Wunderground v.1.15,2013-03-28 22:20:00,
2013-03-28 17:25:00,41.3,23.1,30.26,North,5,3.0,4.0,48,0.00,,,0.00,Wunderground v.1.15,2013-03-28 22:25:00,
2013-03-28 17:30:00,41.5,22.7,30.26,North,5,2.0,2.0,47,0.00,,,0.00,Wunderground v.1.15,2013-03-28 22:30:00,
2013-03-28 17:35:00,42.1,21.7,30.26,North,5,3.0,3.0,44,0.00,,,0.00,Wunderground v.1.15,2013-03-28 22:35:00,
2013-03-28 17:40:00,42.3,21.4,30.26,North,5,3.0,6.0,43,0.00,,,0.00,Wunderground v.1.15,2013-03-28 22:40:00,
2013-03-28 17:45:00,42.5,21.5,30.25,North,5,4.0,6.0,43,0.00,,,0.00,Wunderground v.1.15,2013-03-28 22:45:00,
2013-03-28 17:50:00,42.9,21.4,30.25,North,5,3.0,5.0,42,0.00,,,0.00,Wunderground v.1.15,2013-03-28 22:50:00,
2013-03-28 17:55:00,43.1,20.4,30.25,North,9,3.0,5.0,40,0.00,,,0.00,Wunderground v.1.15,2013-03-28 22:55:00,
2013-03-28 18:00:00,42.8,20.7,30.25,NNE,13,4.0,4.0,41,0.00,,,0.00,Wunderground v.1.15,2013-03-28 23:00:00,
2013-03-28 18:10:00,42.6,20.5,30.25,NNE,12,3.0,3.0,41,0.00,,,0.00,Wunderground v.1.15,2013-03-28 23:10:00,
2013-03-28 18:15:00,42.5,20.4,30.25,NNE,12,2.0,3.0,41,0.00,,,0.00,Wunderground v.1.15,2013-03-28 23:15:00,
2013-03-28 18:20:00,42.3,20.2,30.25,NNE,12,2.0,3.0,41,0.00,,,0.00,Wunderground v.1.15,2013-03-28 23:20:00,
2013-03-28 18:25:00,42.2,20.2,30.25,NNE,12,3.0,3.0,41,0.00,,,0.00,Wunderground v.1.15,2013-03-28 23:25:00,
2013-03-28 18:30:00,42.2,22.4,30.25,NNE,12,2.0,3.0,45,0.00,,,0.00,Wunderground v.1.15,2013-03-28 23:30:00,
2013-03-28 18:35:00,41.8,24.5,30.25,NNE,12,3.0,3.0,50,0.00,,,0.00,Wunderground v.1.15,2013-03-28 23:35:00,
2013-03-28 18:40:00,41.1,25.7,30.25,NNE,12,3.0,3.0,54,0.00,,,0.00,Wunderground v.1.15,2013-03-28 23:40:00,
2013-03-28 18:45:00,40.5,26.4,30.25,NNE,12,3.0,3.0,57,0.00,,,0.00,Wunderground v.1.15,2013-03-28 23:45:00,
2013-03-28 18:50:00,40.1,26.9,30.25,NNE,12,2.0,2.0,59,0.00,,,0.00,Wunderground v.1.15,2013-03-28 23:50:00,
2013-03-28 18:55:00,39.6,27.2,30.25,NNE,12,2.0,2.0,61,0.00,,,0.00,Wunderground v.1.15,2013-03-28 23:55:00,
2013-03-28 19:00:00,39.1,27.9,30.26,NNE,12,2.0,2.0,64,0.00,,,0.00,Wunderground v.1.15,2013-03-29 00:00:00,
2013-03-28 19:05:00,38.6,28.2,30.26,NNE,12,2.0,2.0,66,0.00,,,0.00,Wunderground v.1.15,2013-03-29 00:05:00,
2013-03-28 19:10:00,38.2,28.6,30.26,NNE,12,2.0,2.0,68,0.00,,,0.00,Wunderground v.1.15,2013-03-29 00:10:00,
2013-03-28 19:15:00,37.9,28.3,30.25,NNE,12,2.0,2.0,68,0.00,,,0.00,Wunderground v.1.15,2013-03-29 00:15:00,
2013-03-28 19:20:00,37.6,28.3,30.25,NNE,12,1.0,1.0,69,0.00,,,0.00,Wunderground v.1.15,2013-03-29 00:20:00,
2013-03-28 19:25:00,37.3,28.4,30.25,NNE,12,0.0,1.0,70,0.00,,,0.00,Wunderground v.1.15,2013-03-29 00:25:00,
2013-03-28 19:30:00,37.2,28.3,30.26,NNE,12,0.0,0.0,70,0.00,,,0.00,Wunderground v.1.15,2013-03-29 00:30:00,
2013-03-28 19:35:00,36.9,28.0,30.26,NNE,12,0.0,0.0,70,0.00,,,0.00,Wunderground v.1.15,2013-03-29 00:35:00,
2013-03-28 19:40:00,36.6,28.1,30.26,NNE,12,0.0,0.0,71,0.00,,,0.00,Wunderground v.1.15,2013-03-29 00:40:00,
2013-03-28 19:45:00,36.3,27.8,30.26,NNE,12,0.0,0.0,71,0.00,,,0.00,Wunderground v.1.15,2013-03-29 00:45:00,
2013-03-28 19:50:00,36.0,27.8,30.26,NNE,12,0.0,0.0,72,0.00,,,0.00,Wunderground v.1.15,2013-03-29 00:50:00,
2013-03-28 19:55:00,35.9,28.1,30.26,NNE,12,0.0,0.0,73,0.00,,,0.00,Wunderground v.1.15,2013-03-29 00:55:00,
2013-03-28 20:00:00,35.6,27.8,30.26,NNE,12,0.0,0.0,73,0.00,,,0.00,Wunderground v.1.15,2013-03-29 01:00:00,
2013-03-28 20:10:00,35.0,27.5,30.26,NNE,12,0.0,0.0,74,0.00,,,0.00,Wunderground v.1.15,2013-03-29 01:10:00,
2013-03-28 20:15:00,34.9,27.5,30.26,NNE,12,0.0,0.0,74,0.00,,,0.00,Wunderground v.1.15,2013-03-29 01:15:00,
2013-03-28 20:20:00,34.6,27.2,30.26,NNE,12,0.0,0.0,74,0.00,,,0.00,Wunderground v.1.15,2013-03-29 01:20:00,
2013-03-28 20:25:00,34.1,26.7,30.26,NNE,12,0.0,0.0,74,0.00,,,0.00,Wunderground v.1.15,2013-03-29 01:25:00,
2013-03-28 20:30:00,33.8,27.0,30.26,NNE,12,0.0,0.0,76,0.00,,,0.00,Wunderground v.1.15,2013-03-29 01:30:00,
2013-03-28 20:35:00,33.4,26.6,30.26,NNE,12,0.0,0.0,76,0.00,,,0.00,Wunderground v.1.15,2013-03-29 01:35:00,
2013-03-28 20:40:00,33.2,26.8,30.26,NNE,12,0.0,0.0,77,0.00,,,0.00,Wunderground v.1.15,2013-03-29 01:40:00,
2013-03-28 20:45:00,33.2,26.8,30.26,NNE,12,0.0,0.0,77,0.00,,,0.00,Wunderground v.1.15,2013-03-29 01:45:00,
2013-03-28 20:50:00,33.1,27.0,30.26,NNE,12,0.0,0.0,78,0.00,,,0.00,Wunderground v.1.15,2013-03-29 01:50:00,
2013-03-28 20:55:00,33.1,27.0,30.26,NNE,12,0.0,0.0,78,0.00,,,0.00,Wunderground v.1.15,2013-03-29 01:55:00,
2013-03-28 21:00:00,33.1,27.0,30.27,NNE,12,0.0,0.0,78,0.00,,,0.00,Wunderground v.1.15,2013-03-29 02:00:00,
2013-03-28 21:05:00,32.9,26.8,30.27,NNE,12,0.0,0.0,78,0.00,,,0.00,Wunderground v.1.15,2013-03-29 02:05:00,
2013-03-28 21:10:00,32.7,26.9,30.27,NNE,12,0.0,0.0,79,0.00,,,0.00,Wunderground v.1.15,2013-03-29 02:10:00,
2013-03-28 21:15:00,32.7,26.9,30.27,NNE,12,0.0,0.0,79,0.00,,,0.00,Wunderground v.1.15,2013-03-29 02:15:00,
2013-03-28 21:20:00,32.5,26.7,30.27,NNE,12,0.0,0.0,79,0.00,,,0.00,Wunderground v.1.15,2013-03-29 02:20:00,
2013-03-28 21:25:00,32.5,26.7,30.27,NNE,12,0.0,0.0,79,0.00,,,0.00,Wunderground v.1.15,2013-03-29 02:25:00,
2013-03-28 21:35:00,31.9,26.1,30.27,NNE,12,0.0,0.0,79,0.00,,,0.00,Wunderground v.1.15,2013-03-29 02:35:00,
2013-03-28 21:40:00,31.8,26.0,30.27,NNE,12,0.0,0.0,79,0.00,,,0.00,Wunderground v.1.15,2013-03-29 02:40:00,
2013-03-28 21:44:00,31.5,26.0,30.27,NNE,12,0.0,0.0,80,0.00,,,0.00,Wunderground v.1.15,2013-03-29 02:44:00,
2013-03-28 21:50:00,31.5,26.0,30.27,NNE,12,0.0,0.0,80,0.00,,,0.00,Wunderground v.1.15,2013-03-29 02:50:00,
2013-03-28 21:55:00,31.6,26.4,30.27,NNE,12,0.0,0.0,81,0.00,,,0.00,Wunderground v.1.15,2013-03-29 02:55:00,
2013-03-28 22:00:00,31.6,26.4,30.27,NNE,12,0.0,0.0,81,0.00,,,0.00,Wunderground v.1.15,2013-03-29 03:00:00,
2013-03-28 22:05:00,31.5,26.3,30.27,NNE,12,0.0,0.0,81,0.00,,,0.00,Wunderground v.1.15,2013-03-29 03:05:00,
2013-03-28 22:10:00,31.5,26.3,30.27,NNE,12,0.0,0.0,81,0.00,,,0.00,Wunderground v.1.15,2013-03-29 03:10:00,
2013-03-28 22:15:00,31.3,26.1,30.27,NNE,12,0.0,0.0,81,0.00,,,0.00,Wunderground v.1.15,2013-03-29 03:15:00,
2013-03-28 22:20:00,31.3,26.1,30.27,NNE,12,0.0,0.0,81,0.00,,,0.00,Wunderground v.1.15,2013-03-29 03:20:00,
2013-03-28 22:25:00,31.3,26.1,30.27,NNE,12,0.0,0.0,81,0.00,,,0.00,Wunderground v.1.15,2013-03-29 03:25:00,
2013-03-28 22:30:00,31.2,26.0,30.27,NNE,12,0.0,0.0,81,0.00,,,0.00,Wunderground v.1.15,2013-03-29 03:30:00,
2013-03-28 22:35:00,31.2,26.0,30.27,NNE,12,0.0,0.0,81,0.00,,,0.00,Wunderground v.1.15,2013-03-29 03:35:00,
2013-03-28 22:40:00,30.9,25.8,30.27,NNE,12,0.0,0.0,81,0.00,,,0.00,Wunderground v.1.15,2013-03-29 03:40:00,
2013-03-28 22:45:00,30.7,25.6,30.27,NNE,12,0.0,0.0,81,0.00,,,0.00,Wunderground v.1.15,2013-03-29 03:45:00,
2013-03-28 22:49:00,30.6,25.5,30.27,NNE,12,0.0,0.0,81,0.00,,,0.00,Wunderground v.1.15,2013-03-29 03:49:00,
2013-03-28 22:55:00,30.4,25.3,30.27,NNE,12,0.0,0.0,81,0.00,,,0.00,Wunderground v.1.15,2013-03-29 03:55:00,
2013-03-28 23:00:00,30.3,25.2,30.27,NNE,12,0.0,0.0,81,0.00,,,0.00,Wunderground v.1.15,2013-03-29 04:00:00,
2013-03-28 23:10:00,30.1,25.3,30.27,NNE,12,0.0,0.0,82,0.00,,,0.00,Wunderground v.1.15,2013-03-29 04:10:00,
2013-03-28 23:15:00,30.1,25.3,30.27,NNE,12,0.0,0.0,82,0.00,,,0.00,Wunderground v.1.15,2013-03-29 04:15:00,
2013-03-28 23:20:00,30.1,25.3,30.27,NNE,12,0.0,0.0,82,0.00,,,0.00,Wunderground v.1.15,2013-03-29 04:20:00,
2013-03-28 23:25:00,30.0,24.9,30.27,NNE,12,0.0,0.0,81,0.00,,,0.00,Wunderground v.1.15,2013-03-29 04:25:00,
2013-03-28 23:30:00,30.0,24.9,30.27,NNE,12,0.0,0.0,81,0.00,,,0.00,Wunderground v.1.15,2013-03-29 04:30:00,
2013-03-28 23:35:00,29.8,24.4,30.27,NNE,12,0.0,0.0,80,0.00,,,0.00,Wunderground v.1.15,2013-03-29 04:35:00,
2013-03-28 23:40:00,29.8,24.1,30.27,NNE,12,0.0,0.0,79,0.00,,,0.00,Wunderground v.1.15,2013-03-29 04:40:00,
2013-03-28 23:45:00,29.8,24.1,30.27,NNE,12,0.0,0.0,79,0.00,,,0.00,Wunderground v.1.15,2013-03-29 04:45:00,
2013-03-28 23:50:00,29.5,23.8,30.27,NNE,12,0.0,0.0,79,0.00,,,0.00,Wunderground v.1.15,2013-03-29 04:50:00,
2013-03-28 23:55:00,29.4,23.7,30.27,NNE,12,0.0,0.0,79,0.00,,,0.00,Wunderground v.1.15,2013-03-29 04:55:00,